STARLINK-31953 (59898 NORAD) Tracking and Keplerian Element Data

This shows tracking and keplerian element data for the satellite.

Feedback or suggestion? Click here.




ElementValue
Catalog59898
NameSTARLINK-31953
Epoch Orbit290
Epoch Day160.16667824
Epoch Year2024
RAAN174.3348
Inclination43.0031
Eccentricity0.0001139
Argument of Perigee272.8967
Mean Anonmoly330.6
Mean Motion15.79941344
Decay Rate-0.01070947
L11 59898U 24100P 24160.16667824 -.01070947 00000+0 -62189-2 0 9996
L22 59898 43.0031 174.3348 0001139 272.8967 330.6000 15.79941344 2907



Live tracking and technical data element details for STARLINK-31953 (NORAD 59898). STARLINK-31953 can be tracked NOW for your location showing map with azimuth and elevation plus other details from your city location.







IsCatalogInMostPopularTable: catalog: 59898, numindb: 4
Update: records affected: 1



GetName: 59898 STARLINK-31953

Hit Count: updated at: Tue, 16 Jul 2024 03:11:19 GMT